Location: La Brionne
(46.1728°N, 1.7849°E)
Time: 00:51:26
(UTC+00:00)

Cosmos 1980 - Visible Passes

Search period start: 23 October 2021 00:00
Search period end: 02 November 2021 00:00
Orbit: 840 x 846 km, 71.0° (Epoch: 22 October)

Date Brightness Start Highest point End Pass type
(mag) Time Alt. Az. Time Alt. Az. Time Alt. Az.
23 Oct 5.1 05:24:09 10° NNW 05:29:27 38° NE 05:34:42 10° ESE visible
24 Oct 5.2 05:09:33 10° NNW 05:14:48 37° NE 05:20:01 10° ESE visible
25 Oct 5.2 04:54:56 10° NNW 05:00:09 36° NE 05:05:19 10° ESE visible
26 Oct 5.2 04:40:20 10° NNW 04:45:30 34° NE 04:50:37 10° ESE visible
27 Oct 5.3 04:25:44 10° NNW 04:30:51 33° NE 04:35:56 10° ESE visible
28 Oct 5.3 04:11:07 10° NNW 04:16:11 32° NE 04:21:13 10° ESE visible
28 Oct 4.0 05:55:03 10° NW 06:00:26 46° WSW 06:05:49 10° S visible
29 Oct 5.4 03:56:31 10° N 04:01:31 31° NE 04:06:31 10° ESE visible
29 Oct 4.0 05:40:23 10° NW 05:45:49 49° WSW 05:51:14 10° S visible
29 Oct 5.4 18:50:51 10° S 18:52:14 17° SSE 18:52:14 17° SSE visible
30 Oct 5.4 03:41:54 10° N 03:46:52 30° NE 03:51:48 10° ESE visible
30 Oct 3.9 05:25:44 10° NW 05:31:11 51° WSW 05:36:38 10° S visible
30 Oct 4.7 18:36:18 10° SSE 18:39:27 27° SE 18:39:27 27° SE visible
30 Oct 5.9 20:19:56 10° SW 20:21:24 18° WSW 20:21:24 18° WSW visible
31 Oct 5.4 03:28:11 14° N 03:32:12 29° NE 03:37:05 10° ESE visible
31 Oct 3.8 05:11:04 10° NW 05:16:34 53° WSW 05:22:03 10° S visible
31 Oct 4.3 18:21:44 10° SSE 18:26:35 32° ESE 18:26:35 32° ESE visible
31 Oct 5.2 20:05:15 10° SW 20:08:31 31° WSW 20:08:31 31° WSW visible
01 Nov 5.5 03:14:54 20° N 03:17:32 28° NE 03:22:22 10° ESE visible
01 Nov 3.8 04:56:49 12° NW 05:01:57 55° WSW 05:07:27 10° S visible
01 Nov 4.4 18:07:11 10° SSE 18:12:04 31° ESE 18:13:34 27° ENE visible
01 Nov 4.7 19:50:34 10° SW 19:55:29 44° WNW 19:55:29 44° WNW visible
